Norman Wells, Northwest Territories

1:52 AM MDT on June 24, 2017 (GMT -0600)
Norman Wells

Weather History for CYVQ - October, 2013

Change the Weather History Date:

Thursday, October 3, 2013

  Actual Average Record
Temperature  
Mean Temperature 34 °F -  
Max Temperature 45 °F 26 °F 66 °F (2003)
Min Temperature 23 °F 14 °F 12 °F (2000)
Degree Days  
Heating Degree Days 31    
Moisture  
Dew Point 32 °F    
Average Humidity 86    
Maximum Humidity 100    
Minimum Humidity 64    
Precipitation  
Precipitation 0.00 in 0.04 in - ()
Sea Level Pressure  
Sea Level Pressure 30.01 in    
Wind  
Wind Speed 4 mph ()    
Max Wind Speed 9 mph    
Max Gust Speed -    
Visibility 19.8 miles    
Events Fog    
Averages and records for this station are not official NWS values.
T = Trace of Precipitation, MM = Missing Value Source: Averaged Metar Reports

Daily Weather History Graph

Daily Weather History Graph

Search for Another Location

Airport or City:

Trip Planner

Search our weather history database for the weather conditions in past years. The results will help you decide how hot, cold, wet, or windy it might be!

Date:

Astronomy

Oct. 03, 2013 Rise Set
Actual Time 8:44 AM MDT 7:45 PM MDT
Civil Twilight 7:54 AM MDT 8:35 PM MDT
Nautical Twilight 6:56 AM MDT 9:33 PM MDT
Astronomical Twilight 5:53 AM MDT 10:36 PM MDT
Moon 7:08 AM MDT (10/3) 7:03 PM MDT (10/3)
Length of Visible Light 12h 40m
Length of Day
11h 01m
Waning Crescent, 2% of the Moon is Illuminated
Oct 3
Waning Crescent
Oct 4
New
Oct 11
First Quarter
Oct 18
Full
Oct 26
Last Quarter

Hourly Weather History & Observations

Time (MDT) Temp. Windchill Dew Point Humidity Pressure Visibility Wind Dir Wind Speed Gust Speed Precip Events Conditions
12:00 AM 41 °F - 35 °F 70% 30.07 in 19 mi East 6.9 mph - -  
12:00 AM 41.0 °F 36.4 °F 33.8 °F 76% 30.07 in 20.0 mi East 6.9 mph - N/A   Mostly Cloudy
1:00 AM 39.2 °F 33.0 °F 33.8 °F 81% 30.06 in 20.0 mi ESE 9.2 mph - N/A   Mostly Cloudy
2:00 AM 39.2 °F 34.2 °F 33.8 °F 81% 30.06 in 20.0 mi East 6.9 mph - N/A   Mostly Cloudy
3:00 AM 39.2 °F 35.0 °F 33.8 °F 81% 30.06 in 20.0 mi ESE 5.8 mph - N/A   Mostly Cloudy
4:00 AM 35.6 °F 31.7 °F 33.8 °F 93% 30.06 in 20.0 mi ESE 4.6 mph - N/A   Scattered Clouds
5:00 AM 30.2 °F - 30.2 °F 100% 30.06 in 20.0 mi ENE 2.3 mph - N/A   Scattered Clouds
6:00 AM 27 °F - 26 °F 92% 30.05 in 19 mi East 1.2 mph - -   Scattered Clouds
6:00 AM 26.6 °F - 24.8 °F 93% 30.05 in 20.0 mi Variable 2.3 mph - N/A   Scattered Clouds
7:00 AM 24.8 °F - 24.8 °F 100% 30.04 in 30.0 mi North 2.3 mph - N/A   Partly Cloudy
8:00 AM 24.8 °F - 23.0 °F 93% 30.04 in 30.0 mi Calm Calm - N/A   Partly Cloudy
8:41 AM 26.6 °F 22.6 °F 24.8 °F 93% 30.04 in 30.0 mi NE 3.5 mph - N/A Fog Shallow Fog
9:00 AM 26.6 °F - 24.8 °F 93% 30.04 in 30.0 mi ENE 2.3 mph - N/A Fog Shallow Fog
9:49 AM 30.2 °F - 28.4 °F 93% 30.03 in 30.0 mi Calm Calm - N/A Fog Shallow Fog
10:00 AM 32.0 °F - 30.2 °F 93% 30.03 in 30.0 mi Calm Calm - N/A Fog Shallow Fog
11:00 AM 35.6 °F - 33.8 °F 93% 30.03 in 20.0 mi Calm Calm - N/A   Mostly Cloudy
12:00 PM 35 °F - 34 °F 92% 30.03 in 19 mi SSW 1.2 mph - -   Mostly Cloudy
12:00 PM 35.6 °F - 33.8 °F 93% 30.03 in 20.0 mi Calm Calm - N/A   Mostly Cloudy
12:50 PM 37.4 °F - 33.8 °F 87% 30.02 in 20.0 mi Variable 2.3 mph - N/A   Mostly Cloudy
1:00 PM 39.2 °F 35.9 °F 33.8 °F 81% 30.02 in 20.0 mi South 4.6 mph - N/A   Mostly Cloudy
2:00 PM 39.2 °F 37.0 °F 33.8 °F 81% 30.01 in 30.0 mi South 3.5 mph - N/A   Partly Cloudy
3:00 PM 41.0 °F 37.1 °F 35.6 °F 81% 30.00 in 30.0 mi SE 5.8 mph - N/A   Partly Cloudy
4:00 PM 42.8 °F - 35.6 °F 76% 29.99 in 30.0 mi SSW 2.3 mph - N/A   Partly Cloudy
5:00 PM 44.6 °F 40.2 °F 37.4 °F 76% 29.97 in 30.0 mi SSE 8.1 mph - N/A   Partly Cloudy
6:00 PM 45 °F - 37 °F 64% 29.95 in 28 mi SE 8.1 mph - -   Scattered Clouds
6:00 PM 44.6 °F 39.7 °F 37.4 °F 76% 29.95 in 30.0 mi SE 9.2 mph - N/A   Partly Cloudy
7:00 PM 42.8 °F 40.1 °F 35.6 °F 76% 29.94 in 30.0 mi ESE 4.6 mph - N/A   Partly Cloudy
8:00 PM 39.2 °F 37.0 °F 35.6 °F 87% 29.92 in 30.0 mi ENE 3.5 mph - N/A   Partly Cloudy
9:00 PM 37.4 °F 33.8 °F 33.8 °F 87% 29.91 in 30.0 mi NE 4.6 mph - N/A   Partly Cloudy
11:00 PM 26.6 °F 22.6 °F 24.8 °F 93% 29.87 in 30.0 mi ENE 3.5 mph - N/A   Partly Cloudy